EST,Max TemperatureF,Mean TemperatureF,Min TemperatureF,Max Dew PointF,MeanDew PointF,Min DewpointF,Max Humidity, Mean Humidity, Min Humidity, Max Sea Level PressureIn, Mean Sea Level PressureIn, Min Sea Level PressureIn, Max VisibilityMiles, Mean VisibilityMiles, Min VisibilityMiles, Max Wind SpeedMPH, Mean Wind SpeedMPH, Max Gust SpeedMPH,PrecipitationIn, CloudCover, Events, WindDirDegrees
2011-12-1,48,40,33,31,28,26,79,67,50,30.33,30.25,30.10,10,10,10,14,7,18,0.00,0,,288
2011-12-2,51,39,27,32,28,24,92,67,41,30.55,30.39,30.30,10,9,4,14,3,,0.00,0,,311
2011-12-3,45,36,27,30,28,24,89,73,53,30.68,30.62,30.55,10,9,6,8,4,,0.00,0,,80
2011-12-4,53,42,30,41,35,30,100,86,54,30.57,30.48,30.39,10,6,1,14,3,18,0.00,0,,117
2011-12-5,55,45,35,49,42,35,100,92,74,30.38,30.31,30.15,10,3,0,6,3,,0.00,5,Fog,101
2011-12-6,60,56,53,58,56,51,100,94,88,30.12,30.01,29.88,10,5,2,14,6,20,0.05,8,Rain,185
2011-12-7,60,48,35,59,49,33,100,93,81,29.88,29.74,29.57,10,4,1,18,6,31,1.09,8,Rain-Snow,315
2011-12-8,42,37,30,34,27,23,93,69,51,30.34,30.07,29.72,10,10,8,23,15,34,0.02,4,Rain,296
2011-12-9,48,38,28,34,29,26,89,72,50,30.34,30.28,30.21,10,8,3,10,2,,0.00,1,,182
2011-12-10,42,35,27,29,22,15,82,61,41,30.54,30.36,30.23,10,10,9,17,8,22,0.00,0,,305
2011-12-11,37,30,23,21,17,13,78,60,37,30.68,30.62,30.54,10,10,8,6,3,,0.00,0,,289
2011-12-12,39,30,21,26,22,18,88,73,47,30.61,30.55,30.48,10,7,4,4,0,,0.00,0,,160
2011-12-13,48,36,23,27,23,20,92,67,35,30.46,30.42,30.38,10,8,3,12,5,16,0.00,0,,284
2011-12-14,46,37,28,36,31,24,89,73,58,30.43,30.37,30.28,10,7,4,7,2,,0.00,8,,137
2011-12-15,57,49,41,50,41,34,83,73,59,30.25,29.98,29.80,10,10,6,14,6,22,0.02,6,Rain,189
2011-12-16,54,45,33,47,28,23,80,57,47,30.19,30.11,29.82,10,10,10,23,12,31,0.00,0,,289
2011-12-17,39,34,30,30,26,23,89,73,53,30.20,30.17,30.13,10,9,2,12,7,,0.00,8,Snow,303
2011-12-18,35,31,27,25,20,16,82,68,57,30.33,30.26,30.18,10,10,8,9,3,,0.00,4,,329
2011-12-19,48,36,25,32,26,21,88,65,44,30.28,30.15,30.03,10,9,5,12,3,,0.00,4,,212
2011-12-20,46,42,37,38,36,33,97,82,63,30.18,30.13,30.04,10,8,5,9,5,,0.07,8,Rain,74
2011-12-21,60,50,39,55,46,37,97,91,80,30.10,29.88,29.72,10,5,1,17,6,24,0.16,7,Rain,90
2011-12-22,57,50,43,47,43,39,93,80,55,30.14,30.01,29.88,10,8,2,10,4,,0.41,4,Rain,71
2011-12-23,46,40,33,46,40,27,100,84,58,30.24,29.96,29.78,10,7,2,17,10,24,0.41,7,Rain,347
2011-12-24,39,33,27,29,23,19,88,69,47,30.46,30.39,30.22,10,10,7,12,4,,0.00,4,,332
2011-12-25,46,36,26,31,25,21,81,73,48,30.39,30.23,29.97,10,9,7,10,2,18,0.00,1,,150
2011-12-26,45,36,28,28,26,24,85,63,48,30.30,30.21,29.99,10,10,9,20,10,26,0.00,2,,309
2011-12-27,50,39,28,48,38,25,100,93,82,30.20,29.61,29.37,10,4,0,18,6,24,0.61,5,Fog-Rain,160
2011-12-28,41,34,26,37,24,14,100,66,46,29.97,29.70,29.44,10,9,1,31,14,40,0.01,4,,288
2011-12-29,33,27,21,29,22,13,93,78,57,30.07,30.01,29.97,10,7,1,9,6,,0.00,5,Snow,195
2011-12-30,46,37,28,36,31,26,92,79,61,30.05,29.97,29.87,10,8,3,7,2,,0.00,2,,97
2011-12-31,52,44,37,40,38,36,96,76,61,30.10,29.92,29.83,10,9,4,14,5,22,0.00,6,Rain,296